Regional Weather Roundup
Issued by NWS Sterling, VA

Home | Current Version | Previous Version | Text Only | Print | Product List | Glossary Off
Versions: 1 2 3 4 5 6 7 8 9 10 11 12 13 14 15 16 17 18 19 20 21 22 23 24 25 26 27 28 29 30 31 32 33 34 35 36 37 38 39 40 41 42 43 44 45 46 47 48 49 50

000
ASUS41 KLWX 291610
RWRLWX

REGIONAL WEATHER ROUNDUP
NATIONAL WEATHER SERVICE BALTIMORE MD/WASHINGTON DC
1200 PM EDT SUN MAR 29 2015

Note: "FAIR" indicates few or no clouds below 12,000 feet
with no significant weather and/or obstructions to visibility.
 TC=TEMPERATURE CELSIUS

 * =Non NWS site. Station does not report precipitation (e.g. rain,
    snow, etc.), thunder, or fog.

DCZ001-MDZ009-015-VAZ040>042-051-053>054-291700-
WASHINGTON METRO

CITY           SKY/WX    TMP DP  RH WIND       PRES   REMARKS
WASHINGTON NAT SUNNY     38  10  31 N12       30.41F
DULLES         SUNNY     34   8  33 W7        30.39F
ANDREWS AFB    SUNNY     35   7  30 NW9G20    30.37F WCI  28
FT BELVOIR     SUNNY     37   5  26 VRB6      30.41F
QUANTICO       SUNNY     38   7  27 NE9       30.42F
COLLEGE PARK*  SUNNY     36   9  32 W7        30.39F
LEESBURG*      SUNNY     36  10  35 NW6       30.39F
MANASSAS*      SUNNY     36   7  30 N8        30.41F
GAITHERSBURG*  SUNNY     34   9  35 W6        30.41F

$$

MDZ006>007-011-014-291700-
BALTIMORE METRO

CITY           SKY/WX    TMP DP  RH WIND       PRES   REMARKS
BWI AIRPORT    SUNNY     37   5  26 N8G17     30.37F
MARTIN STATE   SUNNY     37  10  32 W12       30.39F
ANNAPOLIS      SUNNY     36   8  31 NW10      30.38F WCI  28

$$

MDZ012-015-019>023-291700-
MARYLAND EASTERN SHORE

CITY           SKY/WX    TMP DP  RH WIND       PRES   REMARKS
OCEAN CITY     SUNNY     37  11  34 N12G18    30.34S
SALISBURY      SUNNY     36  11  35 N15G24    30.35S WCI  27
BAY BRIDGE AP*   N/A     34  10  37 NW7       30.39S
CAMBRIDGE*     SUNNY     36  10  35 N10G20    30.37F WCI  28
EASTON*        SUNNY     37  14  38 NW10G21   30.41S

$$

MDZ017>025-291700-
SOUTHERN MARYLAND

CITY           SKY/WX    TMP DP  RH WIND       PRES   REMARKS
PATUXENT RIVER SUNNY     36   7  29 NW10      30.39S WCI  28
ST INIGOES     SUNNY     38   4  24 NW8       30.38F
LEONARDTOWN*   SUNNY     36   3  25 N7        30.40F

$$

MDZ003>005-291700-
NORTH CENTRAL MARYLAND

CITY           SKY/WX    TMP DP  RH WIND       PRES   REMARKS
FREDERICK*     SUNNY     37  -6  15 NW5       30.41F
HAGERSTOWN APT SUNNY     33   6  32 VRB3      30.35F
WESTMINSTER*   SUNNY     34   0  23 NW7       30.34F

$$

MDZ501>502-291700-
WESTERN MARYLAND

CITY           SKY/WX    TMP DP  RH WIND       PRES   REMARKS
OAKLAND*       SUNNY     27  10  50 W5        30.24S
CUMBERLAND*    SUNNY     36   9  32 SE5       30.39F

$$

VAZ025>031-291700-
SHENANDOAH VALLEY

CITY           SKY/WX    TMP DP  RH WIND       PRES   REMARKS
WINCHESTER*    SUNNY     36  -4  18 SW3       30.36F
FRONT ROYAL*   FAIR      36   3  25 W3        30.36F
LURAY*         FAIR      39   5  24 N3        30.35F
NEW MARKET*    FAIR      35   6  28 SE3       30.35F
STAUNTON*      SUNNY     35   3  26 W6        30.38S
WAYNESBORO*    FAIR      35   0  22 NW6       30.34S

$$

WVZ021-048>050-054>055-291700-
EASTERN WEST VIRGINIA PANHANDLE

CITY           SKY/WX    TMP DP  RH WIND       PRES   REMARKS
MARTINSBURG    SUNNY     37   6  27 NW7       30.37F
PETERSBURG*    SUNNY     37   0  21 NE6       30.36F

$$

VAZ036>039-050-291700-
CENTRAL FOOTHILLS

CITY           SKY/WX    TMP DP  RH WIND       PRES   REMARKS
CHARLOTTESVILL SUNNY     39   0  19 VRB5      30.37F
CULPEPER*      SUNNY     37   5  25 N8        30.40F
ORANGE*        SUNNY     37   5  25 NE5       30.41F
GORDONSVILLE*  FAIR      37   3  24 NE6       30.39F
WARRENTON*     FAIR      39  15  36 N8        30.39F

$$

VAZ055>057-291700-
NORTH AND CENTRAL PIEDMONT

CITY           SKY/WX    TMP DP  RH WIND       PRES   REMARKS
FREDERICKSBRG* SUNNY     38   9  29 N3        30.41F
STAFFORD*      SUNNY     35   2  25 NW8G14    30.45F WCI  29

$$

NCZ024-NYZ072-PAZ021-071-VAZ022-071-291700-
OTHER REGIONAL OBSERVATIONS

CITY           SKY/WX    TMP DP  RH WIND       PRES   REMARKS
NEW YORK CITY  SUNNY     37  -1  20 VRB6      30.29F
PHILADELPHIA   SUNNY     37   5  26 N10G22    30.34F
PITTSBURGH     MOSUNNY   34  10  37 S10       30.31F WCI  26
ROANOKE        SUNNY     38   4  24 NE6       30.40F
RICHMOND       SUNNY     40   5  23 NW10      30.41F
RALEIGH        SUNNY     42  10  27 VRB6      30.44F

$$

ANZ530>537-291700-
MARINE OBSERVATIONS

STATION/POSITION TIME  TEMP    WIND        PRES
                       AIR SEA DIR/SP/G
                 (UTC) (F)     (DEG/KT/KT) (MB)
THOMAS PT LIGHT  1600                        N/A
BALT KEY BRIDGE  1500   31     290/ 10/ 12 1029.2R
COVE POINT       1500   30     350/ 11/ 14 1029.0R
LEWISETTA        1500   32 42              1029.3R
SOLOMONS ISLAND  1500      42                N/A
PINEY POINT      1500          320/ 12/ 13   N/A

$$



USA.gov is the U.S. government's official web portal to all federal, state and local government web resources and services.